Prague, Czech Republic

7:32 AM CET on February 28, 2017 (GMT +0100)
Prague-Ruzyne Airport

Weather History for LKPR - March, 2013

Change the Weather History Date:

Friday, March 22, 2013

  Actual Average Record
Temperature  
Mean Temperature 28 °F -  
Max Temperature 30 °F 53 °F 67 °F (2014)
Min Temperature 25 °F 34 °F 19 °F (2003)
Degree Days  
Heating Degree Days 38    
Moisture  
Dew Point 22 °F    
Average Humidity 78    
Maximum Humidity 93    
Minimum Humidity 57    
Precipitation  
Precipitation 0.00 in 0.05 in - ()
Sea Level Pressure  
Sea Level Pressure 30.06 in    
Wind  
Wind Speed 8 mph ()    
Max Wind Speed 15 mph    
Max Gust Speed -    
Visibility 6.1 miles    
Events Snow    
Averages and records for this station are not official NWS values.
T = Trace of Precipitation, MM = Missing Value Source: Averaged Metar Reports

Daily Weather History Graph

Daily Weather History Graph

Search for Another Location

Airport or City:

Trip Planner

Search our weather history database for the weather conditions in past years. The results will help you decide how hot, cold, wet, or windy it might be!

Date:

Astronomy

Mar. 22, 2013 Rise Set
Actual Time 6:01 AM CET 6:19 PM CET
Civil Twilight 5:28 AM CET 6:51 PM CET
Nautical Twilight 4:50 AM CET 7:29 PM CET
Astronomical Twilight 4:10 AM CET 8:09 PM CET
Moon 1:04 PM CET (3/22) 3:17 AM CET (3/22)
Length of Visible Light 13h 22m
Length of Day
12h 17m
Waxing Gibbous, 75% of the Moon is Illuminated
Mar 22
Waxing Gibbous
Mar 27
Full
Apr 3
Last Quarter
Apr 10
New
Apr 18
First Quarter

Hourly Weather History & Observations

Time (CET) Temp. Windchill Dew Point Humidity Pressure Visibility Wind Dir Wind Speed Gust Speed Precip Events Conditions
12:00 AM 26.6 °F 19.1 °F 23.0 °F 86% 30.04 in 6.2 mi WNW 6.9 mph - N/A   Scattered Clouds
12:30 AM 26.6 °F 18.2 °F 21.2 °F 80% 30.04 in 6.2 mi WNW 8.1 mph - N/A   Scattered Clouds
1:00 AM 26 °F - 22 °F 77% 30.13 in 9 mi WNW 6.7 mph - -   Scattered Clouds
1:00 AM 26.6 °F 19.1 °F 23.0 °F 86% 30.04 in - WNW 6.9 mph - N/A   Clear
1:30 AM 26.6 °F 21.2 °F 21.2 °F 80% 30.04 in 6.2 mi West 4.6 mph - N/A   Scattered Clouds
2:00 AM 26.6 °F 20.0 °F 21.2 °F 80% 30.04 in 6.2 mi West 5.8 mph - N/A   Mostly Cloudy
2:30 AM 28.4 °F 20.4 °F 21.2 °F 74% 30.04 in 6.2 mi WNW 8.1 mph - N/A   Overcast
3:00 AM 28.4 °F 21.2 °F 23.0 °F 80% 30.04 in 6.2 mi WNW 6.9 mph - N/A   Overcast
3:30 AM 26.6 °F 19.1 °F 21.2 °F 80% 30.04 in 6.2 mi WNW 6.9 mph - N/A   Overcast
4:00 AM 26.6 °F 18.2 °F 23.0 °F 86% 30.04 in 6.2 mi WNW 8.1 mph - N/A   Overcast
4:30 AM 26.6 °F 16.8 °F 23.0 °F 86% 30.04 in 3.7 mi WNW 10.4 mph - N/A Snow Light Snow Showers
5:00 AM 26.6 °F 18.2 °F 24.8 °F 93% 30.04 in 4.3 mi WNW 8.1 mph - N/A   Overcast
5:30 AM 26.6 °F 18.2 °F 23.0 °F 86% 30.04 in 6.2 mi WNW 8.1 mph - N/A Snow Light Snow Showers
5:48 AM 26.6 °F 15.7 °F 23.0 °F 86% 30.04 in 3.1 mi NW 12.7 mph - N/A Snow Light Snow Showers
6:00 AM 26.6 °F 16.2 °F 23.0 °F 86% 30.04 in 2.8 mi NW 11.5 mph - N/A Snow Light Snow
6:15 AM 26.6 °F 16.2 °F 23.0 °F 86% 30.04 in 6.2 mi NW 11.5 mph - N/A Snow Light Snow
6:30 AM 26.6 °F 17.5 °F 21.2 °F 80% 30.04 in 6.2 mi NW 9.2 mph - N/A   Overcast
7:00 AM 26 °F - 22 °F 76% 30.14 in 9 mi NNW 8.9 mph - - Snow Light Snow
7:00 AM 26.6 °F 18.2 °F 21.2 °F 80% 30.04 in 6.2 mi NW 8.1 mph - N/A   Mostly Cloudy
7:30 AM 26.6 °F 18.2 °F 21.2 °F 80% 30.06 in 6.2 mi NNW 8.1 mph - N/A   Scattered Clouds
8:00 AM 26.6 °F 16.8 °F 23.0 °F 86% 30.06 in 6.2 mi NNW 10.4 mph - N/A   Mostly Cloudy
8:30 AM 26.6 °F 16.2 °F 21.2 °F 80% 30.06 in 6.2 mi NNW 11.5 mph - N/A   Mostly Cloudy
9:00 AM 26.6 °F 16.2 °F 21.2 °F 80% 30.06 in 6.2 mi North 11.5 mph - N/A   Mostly Cloudy
9:30 AM 26.6 °F 16.2 °F 21.2 °F 80% 30.06 in 6.2 mi North 11.5 mph - N/A   Mostly Cloudy
10:00 AM 28.4 °F 19.1 °F 21.2 °F 74% 30.06 in 6.2 mi North 10.4 mph - N/A   Mostly Cloudy
10:30 AM 30.2 °F 20.2 °F 23.0 °F 75% 30.06 in 6.2 mi North 12.7 mph - N/A   Mostly Cloudy
11:00 AM 28.4 °F 18.0 °F 21.2 °F 74% 30.06 in 6.2 mi North 12.7 mph - N/A   Mostly Cloudy
11:30 AM 28.4 °F 19.1 °F 19.4 °F 69% 30.06 in 6.2 mi NNW 10.4 mph - N/A   Mostly Cloudy
12:00 PM 30.2 °F 21.3 °F 21.2 °F 69% 30.06 in 6.2 mi North 10.4 mph - N/A   Mostly Cloudy
12:30 PM 30.2 °F 22.6 °F 21.2 °F 69% 30.06 in 6.2 mi North 8.1 mph - N/A   Mostly Cloudy
1:00 PM 29 °F - 20 °F 57% 30.14 in 12 mi NNW 8.9 mph - -   Partly Cloudy
1:00 PM 28.4 °F 19.7 °F 21.2 °F 74% 30.06 in 6.2 mi North 9.2 mph - N/A   Mostly Cloudy
1:30 PM 30.2 °F 22.6 °F 21.2 °F 69% 30.04 in 6.2 mi North 8.1 mph - N/A   Mostly Cloudy
2:00 PM 30.2 °F 21.3 °F 21.2 °F 69% 30.04 in 6.2 mi North 10.4 mph - N/A   Mostly Cloudy
2:30 PM 30.2 °F 21.3 °F 23.0 °F 75% 30.04 in 6.2 mi North 10.4 mph - N/A   Mostly Cloudy
3:00 PM 30.2 °F 20.8 °F 23.0 °F 75% 30.04 in 6.2 mi North 11.5 mph - N/A   Mostly Cloudy
3:30 PM 28.4 °F 18.5 °F 23.0 °F 80% 30.04 in 6.2 mi North 11.5 mph - N/A   Mostly Cloudy
3:42 PM 28.4 °F 19.1 °F 23.0 °F 80% 30.04 in 6.2 mi North 10.4 mph - N/A   Mostly Cloudy
4:00 PM 28.4 °F 19.7 °F 23.0 °F 80% 30.04 in 6.2 mi North 9.2 mph - N/A Snow Light Snow Showers
4:13 PM 28.4 °F 20.4 °F 23.0 °F 80% 30.04 in 6.2 mi North 8.1 mph - N/A Snow Light Snow Showers
4:30 PM 30.2 °F 22.6 °F 23.0 °F 75% 30.04 in 6.2 mi North 8.1 mph - N/A   Mostly Cloudy
4:35 PM 30.2 °F 22.6 °F 23.0 °F 75% 30.06 in 6.2 mi NNE 8.1 mph - N/A Snow Light Snow Showers
5:00 PM 28.4 °F 19.1 °F 23.0 °F 80% 30.06 in 6.2 mi North 10.4 mph - N/A Snow Light Snow Showers
5:30 PM 28.4 °F 18.0 °F 23.0 °F 80% 30.04 in 5.0 mi NNE 12.7 mph - N/A Snow Light Snow
5:55 PM 28.4 °F 18.5 °F 23.0 °F 80% 30.06 in 2.8 mi NNE 11.5 mph - N/A Snow Light Snow
6:00 PM 28.4 °F 18.5 °F 23.0 °F 80% 30.06 in 3.7 mi NNE 11.5 mph - N/A Snow Light Snow
6:30 PM 28.4 °F 19.1 °F 21.2 °F 74% 30.06 in 5.6 mi NNE 10.4 mph - N/A Snow Light Snow
7:00 PM 28 °F - 22 °F 69% 30.15 in 6 mi NE 11.2 mph - - Snow Light Snow
7:00 PM 28.4 °F 17.0 °F 23.0 °F 80% 30.06 in 6.2 mi NNE 15.0 mph - N/A Snow Light Snow
7:30 PM 26.6 °F 15.7 °F 21.2 °F 80% 30.06 in 6.2 mi NE 12.7 mph - N/A Snow Light Snow
8:00 PM 26.6 °F 16.8 °F 19.4 °F 74% 30.06 in 6.2 mi NE 10.4 mph - N/A   Overcast
8:30 PM 26.6 °F 16.2 °F 19.4 °F 74% 30.09 in 6.2 mi NNE 11.5 mph - N/A   Overcast
9:00 PM 26.6 °F 16.2 °F 21.2 °F 80% 30.06 in 6.2 mi NNE 11.5 mph - N/A   Overcast
9:30 PM 26.6 °F 16.2 °F 21.2 °F 80% 30.06 in 6.2 mi NNE 11.5 mph - N/A   Overcast
10:00 PM 26.6 °F 18.2 °F 21.2 °F 80% 30.06 in 6.2 mi NNE 8.1 mph - N/A   Overcast
10:30 PM 26.6 °F 18.2 °F 21.2 °F 80% 30.06 in 6.2 mi NE 8.1 mph - N/A   Overcast
11:00 PM 26.6 °F 18.2 °F 23.0 °F 86% 30.06 in 6.2 mi NE 8.1 mph - N/A   Overcast
11:30 PM 26.6 °F 19.1 °F 21.2 °F 80% 30.06 in 6.2 mi NE 6.9 mph - N/A   Overcast